Tracking 31027 objects as of 19-Jul-2025
HD Live streaming from Space Station
objects crossing your sky now

STARLINK-30934

Track STARLINK-30934 now!
10-day predictions
STARLINK-30934 is classified as:


NORAD ID: 58395
Int'l Code: 2023-178X
Perigee: 481.8 km
Apogee: 483.1 km
Inclination: 53.2 °
Period: 94.1 minutes
Semi major axis: 6853 km
RCS: Unknown
Launch date: November 20, 2023
Source: United States (US)
Launch site: AIR FORCE WESTERN TEST RANGE (AFWTR)
Your satellite tracking list
COSMOS 830
Track 1 satellite(s)




NASA's NSSDC Master Catalog

Two Line Element Set (TLE):
1 58395U 23178X   25199.76417115  .00003042  00000-0  11486-3 0  9991
2 58395  53.1618   7.8992 0000936 306.9859  53.1056 15.30179717 94003
Source of the keplerian elements: AFSPC